Regional Weather Roundup
Issued by NWS Little Rock, AR

Home | Current Version | Previous Version | Text Only | Print | Product List | Glossary Off
Versions: 1 2 3 4 5 6 7 8 9 10 11 12 13 14 15 16 17 18 19 20 21 22 23 24 25 26 27 28 29 30 31 32

000
ASUS44 KLZK 300105
RWRLZK

WEATHER ROUNDUP FOR ARKANSAS
NATIONAL WEATHER SERVICE LITTLE ROCK AR
800 PM CDT WED MAR 29 2017

NOTE: "FAIR" INDICATES FEW OR NO CLOUDS BELOW 12,000 FEET WITH NO
SIGNIFICANT WEATHER AND/OR OBSTRUCTIONS TO VISIBILITY.

ARZ001-003-010-029-300200-
NORTHWEST ARKANSAS

CITY           SKY/WX    TMP DP  RH WIND       PRES   REMARKS
FAYETTEVILLE   CLEAR     66  58  75 S6        29.68S
FORT SMITH     MOCLDY    73  56  54 S8        29.68S
HARRISON       LGT RAIN  65  61  87 S9        29.72S
BENTONVILLE    CLEAR     70  54  56 S13G18    29.68S
ROGERS         PTCLDY    68  56  65 S9        29.69S
SILOAM SPGS    CLEAR     66  54  63 S10       29.67R
HIGHFILL       CLEAR     69  56  62 S14       29.66F
SPRINGDALE     MOCLDY    68  57  68 S8G17     29.70S
$$

ARZ004-005-016-300200-
NORTH CENTRAL ARKANSAS

CITY           SKY/WX    TMP DP  RH WIND       PRES   REMARKS
BATESVILLE     CLOUDY    75  57  53 SE12G17   29.75S
FLIPPIN        CLOUDY    72  57  60 SE9       29.66F
MTN HOME       CLOUDY    69  61  75 S10       29.68F
$$

ARZ040-041-300200-
WEST CENTRAL ARKANSAS

CITY           SKY/WX    TMP DP  RH WIND       PRES   REMARKS
MENA           CLEAR     72  68  88 S3        29.72S
MOUNT IDA      MOCLDY    71  60  68 VRB5G17   29.71R
$$

ARZ009-017-025-026-028-300200-
NORTHEAST ARKANSAS

CITY           SKY/WX    TMP DP  RH WIND       PRES   REMARKS
CORNING        FAIR      72  63  73 SE9       29.77F
JONESBORO      CLOUDY    72  59  63 S9        29.78S
NEWPORT        CLOUDY    73  62  68 SE14      29.76S
WALNUT RIDGE   CLOUDY    72  59  64 S14       29.76S
BLYTHEVILLE    MOCLDY    72  61  68 S8        29.80R
$$

ARZ022-023-033-042-044-300200-
CENTRAL ARKANSAS

CITY           SKY/WX    TMP DP  RH WIND       PRES   REMARKS
LITTLE ROCK    CLOUDY    74  61  63 S9        29.74S
N LITTLE ROCK    N/A     74  62  66 S8G16     29.74F
JACKSONVILLE   MOCLDY    76  62  59 SE6       29.74S
CONWAY           N/A     75  61  60 S10G16    29.71S
SEARCY         CLOUDY    74  62  66 S8        29.76F
HOT SPRINGS    CLOUDY    74  63  68 VRB5G18   29.73F
RUSSELLVILLE   CLOUDY    74  59  59 S5        29.69R
$$

ARZ036-300200-
EAST ARKANSAS

CITY           SKY/WX    TMP DP  RH WIND       PRES   REMARKS
WEST MEMPHIS   MOCLDY    74  57  55 S13       29.80S
$$

ARZ050-053-066-070-073-300200-
SOUTHWEST ARKANSAS

CITY           SKY/WX    TMP DP  RH WIND       PRES   REMARKS
ARKADELPHIA    CLOUDY    74  64  71 S10       29.74R
CAMDEN         LGT RAIN  73  61  64 SE7       29.75R
TEXARKANA      PTCLDY    67  66  97 SE7       29.72F
EL DORADO      CLOUDY    73  64  73 S10       29.76R
DE QUEEN       MOCLDY    71  65  81 SW5       29.69S
$$

ARZ056-057-069-300200-
SOUTHEAST ARKANSAS

CITY           SKY/WX    TMP DP  RH WIND       PRES   REMARKS
PINE BLUFF     CLOUDY    75  62  64 S12       29.76F
STUTTGART      CLOUDY    77  55  47 S13       29.78S
MONTICELLO     MOCLDY    77  62  59 S14G23    29.75F

$$






USA.gov is the U.S. government's official web portal to all federal, state and local government web resources and services.